Change the Weather History Date:

Wednesday, February 13, 2013

  Actual Average Record
Temperature  
Mean Temperature 28 °F 29 °F  
Max Temperature 40 °F 41 °F 66 °F (2015)
Min Temperature 15 °F 18 °F -26 °F (1949)
Degree Days  
Heating Degree Days 37 36  
Month to date heating degree days 492 485  
Since 1 July heating degree days 4512 4670  
Cooling Degree Days 0 0  
Month to date cooling degree days 0 0  
Year to date cooling degree days 0 0  
Moisture  
Dew Point 21 °F    
Average Humidity 76    
Maximum Humidity 92    
Minimum Humidity 59    
Precipitation  
Precipitation 0.00 in 0.03 in 0.46 in (2000)
Month to date precipitation 0.35 0.39  
Year to date precipitation 1.04 1.51  
Snow  
Snow 0.00 in 0.30 in 3.30 in (1933)
Month to date snowfall 5.1 3.4  
Since 1 July snowfall 36.0 29.5  
Snow Depth 5.00 in    
Sea Level Pressure  
Sea Level Pressure 30.41 in    
Wind  
Wind Speed 4 mph (SW)    
Max Wind Speed 18 mph    
Max Gust Speed 21 mph    
Visibility 10 miles    
Events      
T = Trace of Precipitation, MM = Missing Value Source: NWS Daily Summary

Daily Weather History Graph

Daily Weather History Graph

Search for Another Location

Airport or City:

Trip Planner

Search our weather history database for the weather conditions in past years. The results will help you decide how hot, cold, wet, or windy it might be!

Date:

Astronomy

Feb. 13, 2013 Rise Set
Actual Time 6:39 AM PST 5:15 PM PST
Civil Twilight 6:11 AM PST 5:44 PM PST
Nautical Twilight 5:39 AM PST 6:16 PM PST
Astronomical Twilight 5:07 AM PST 6:48 PM PST
Moon 8:09 AM PST (2/13) 9:25 PM PST (2/13)
Length of Visible Light 11h 32m
Length of Day
10h 36m
Waxing Crescent, 14% of the Moon is Illuminated
Feb 13
Waxing Crescent
Feb 17
First Quarter
Feb 25
Full
Mar 4
Last Quarter
Mar 11
New

Hourly Weather History & Observations

Time (PST) Temp. Windchill Dew Point Humidity Pressure Visibility Wind Dir Wind Speed Gust Speed Precip Events Conditions
12:56 AM 19.0 °F - 15.1 °F 85% 30.44 in 10.0 mi Calm Calm - N/A   Clear
1:56 AM 19.0 °F - 16.0 °F 88% 30.44 in 10.0 mi Calm Calm - N/A   Clear
2:56 AM 17.1 °F 11.7 °F 14.0 °F 88% 30.41 in 10.0 mi West 3.5 mph - N/A   Clear
3:56 AM 19.0 °F - 16.0 °F 88% 30.42 in 10.0 mi Calm Calm - N/A   Clear
4:56 AM 18.0 °F - 15.1 °F 88% 30.45 in 10.0 mi Calm Calm - N/A   Clear
5:56 AM 15.1 °F - 12.0 °F 88% 30.48 in 10.0 mi Calm Calm - N/A   Clear
6:56 AM 16.0 °F - 12.9 °F 88% 30.48 in 10.0 mi Calm Calm - N/A   Scattered Clouds
7:56 AM 19.9 °F - 17.1 °F 89% 30.47 in 10.0 mi Calm Calm - N/A   Scattered Clouds
8:56 AM 25.0 °F 19.3 °F 19.9 °F 81% 30.45 in 10.0 mi West 4.6 mph - N/A   Scattered Clouds
9:56 AM 32.0 °F 25.6 °F 23.0 °F 69% 30.43 in 10.0 mi SSW 6.9 mph - N/A   Clear
10:56 AM 35.1 °F 26.9 °F 24.1 °F 64% 30.42 in 10.0 mi SSW 11.5 mph - N/A   Scattered Clouds
11:56 AM 37.0 °F 30.4 °F 25.0 °F 62% 30.41 in 10.0 mi SW 9.2 mph - N/A   Mostly Cloudy
12:56 PM 37.0 °F 29.8 °F 25.0 °F 62% 30.41 in 10.0 mi WSW 10.4 mph - N/A   Mostly Cloudy
1:56 PM 39.0 °F 29.9 °F 26.1 °F 60% 30.37 in 10.0 mi West 17.3 mph - N/A   Clear
2:56 PM 39.0 °F 30.6 °F 26.1 °F 60% 30.38 in 10.0 mi West 15.0 mph - N/A   Clear
3:56 PM 39.0 °F 33.4 °F 26.1 °F 60% 30.37 in 10.0 mi SW 8.1 mph - N/A   Clear
4:56 PM 36.0 °F 31.1 °F 25.0 °F 64% 30.38 in 10.0 mi SW 5.8 mph - N/A   Clear
5:56 PM 33.1 °F - 25.0 °F 72% 30.40 in 10.0 mi Calm Calm - N/A   Clear
6:56 PM 28.9 °F - 23.0 °F 78% 30.41 in 10.0 mi Calm Calm - N/A   Partly Cloudy
7:56 PM 32.0 °F - 25.0 °F 75% 30.39 in 10.0 mi Calm Calm - N/A   Overcast
8:56 PM 30.0 °F 26.5 °F 25.0 °F 82% 30.38 in 10.0 mi South 3.5 mph - N/A   Overcast
9:56 PM 30.0 °F 26.5 °F 25.0 °F 82% 30.36 in 10.0 mi SSE 3.5 mph - N/A   Overcast
10:56 PM 30.9 °F - 25.0 °F 79% 30.35 in 10.0 mi Calm Calm - N/A   Overcast
11:56 PM 28.9 °F - 24.1 °F 82% 30.35 in 10.0 mi Calm Calm - N/A   Scattered Clouds